Wind_Speed
31 35 36 35 33 32 32 32 32 31 29 29 28 27 25 25 27 30 33 34 35 35 35 35 35 34 34 33 31 30 29 27 26 25 24 23 23 22 22 21 19 17 17 17 16 16 15 16 17 18 19 19 19 18 18 17 15 14 13 12 11 10 9
30 33 35 36 37 35 33 32 32 32 31 30 29 28 28 27 27 29 31 33 34 35 35 36 36 35 35 34 33 31 30 29 28 27 26 25 24 23 22 22 20 18 18 17 17 17 18 19 19 20 21 21 21 20 19 18 16 15 14 13 12 11 10
29 30 30 31 33 34 34 33 32 32 32 31 31 30 30 29 28 28 28 29 31 32 34 36 36 36 35 34 34 33 31 30 30 29 28 26 24 23 23 23 22 20 19 19 19 19 20 20 21 22 22 23 23 22 20 19 18 17 15 14 13 12 12
27 27 26 27 29 32 35 35 33 33 31 30 31 30 30 29 28 28 27 27 27 29 30 31 32 34 35 35 35 34 33 32 31 30 29 27 26 25 25 24 23 21 20 20 20 21 22 22 23 23 24 24 24 22 21 20 19 18 17 16 14 13 13
25 25 26 27 29 31 33 35 35 34 33 31 30 30 30 30 29 29 27 26 26 26 27 27 28 31 33 34 35 34 34 33 32 32 31 30 28 27 26 25 24 22 21 20 21 22 23 23 24 24 24 25 24 23 22 20 19 18 18 17 15 15 14
24 25 25 26 27 28 29 30 32 33 33 32 30 29 30 31 31 30 28 26 25 25 26 26 27 27 29 31 33 34 34 34 34 34 33 32 31 30 28 26 25 24 22 22 22 23 23 24 24 24 25 25 24 23 22 21 20 19 18 17 16 16 16
26 25 25 25 26 27 27 28 29 31 32 32 31 30 30 32 33 31 29 28 26 25 26 26 26 25 25 27 29 31 33 33 33 33 33 32 31 31 29 27 26 25 23 24 24 24 25 25 25 25 25 25 25 24 23 22 21 20 19 18 17 17 17
28 27 27 27 28 29 29 28 28 29 30 31 32 33 33 34 34 33 32 29 27 27 27 26 25 24 23 24 26 28 29 29 30 31 31 31 31 31 30 28 27 26 25 25 26 26 26 26 26 26 26 26 25 25 24 23 22 22 20 19 18 18 18
28 30 30 29 28 29 29 28 27 29 29 29 29 31 32 34 34 34 33 30 29 28 27 25 24 23 23 23 24 25 26 27 28 29 30 31 31 30 30 29 27 26 26 26 26 27 27 27 27 27 27 27 27 26 25 24 24 23 21 20 19 19 19
27 30 29 26 24 25 26 25 27 29 29 27 27 29 31 32 33 33 32 31 30 29 27 25 23 23 23 23 23 24 25 26 27 28 30 30 30 29 29 29 28 27 27 27 27 29 29 29 29 29 29 29 29 28 26 26 25 24 22 21 20 20 20
28 28 26 24 24 25 25 23 24 26 27 27 28 30 31 31 32 32 32 31 30 28 26 25 24 24 23 22 22 23 25 26 27 28 29 29 29 29 29 28 28 27 27 28 28 30 31 31 31 30 31 30 30 29 27 27 26 25 24 22 21 21 21
31 29 26 24 24 24 23 19 18 21 24 27 29 30 31 31 31 31 31 30 29 28 26 26 25 24 23 22 22 23 24 26 27 28 28 28 28 29 28 27 27 27 28 28 29 30 32 32 32 32 31 31 30 30 28 28 27 26 25 24 23 23 23
27 26 24 22 22 23 22 18 14 19 24 27 29 30 30 30 30 30 30 29 29 28 27 27 26 25 24 23 23 24 25 26 27 28 27 27 27 28 28 27 27 27 28 29 30 31 33 33 33 33 31 31 31 30 29 29 28 27 27 26 26 25 25
25 25 24 23 23 23 24 20 15 18 24 27 29 30 29 29 29 28 29 29 28 28 28 28 27 26 25 25 25 26 27 27 28 28 27 27 27 27 27 27 28 28 28 29 31 32 33 34 34 33 32 32 32 32 31 31 30 30 29 28 28 27 26
23 24 25 26 26 24 24 22 17 17 24 28 28 29 28 28 28 28 29 30 29 29 29 28 28 27 27 27 28 28 28 28 29 29 28 28 28 27 28 28 28 29 29 30 31 32 34 35 35 34 34 34 34 33 33 33 33 32 31 30 29 29 28
21 20 22 25 26 25 25 23 20 19 24 27 27 27 27 27 28 29 30 30 30 30 30 30 29 29 29 30 30 29 29 29 30 30 30 30 29 28 28 28 28 29 29 30 30 32 34 35 36 35 35 35 35 35 35 35 35 34 33 32 31 31 31
19 17 18 21 24 26 26 26 24 22 24 27 26 24 24 25 27 29 29 30 29 29 29 30 31 31 31 31 31 30 30 31 31 32 32 32 32 31 30 29 29 29 29 29 30 31 33 35 36 36 36 36 36 36 37 37 36 35 34 34 33 33 32
14 14 16 19 22 26 27 27 26 24 24 26 25 24 24 24 26 27 27 27 27 27 28 30 32 32 32 32 31 32 32 33 33 34 34 34 34 33 32 30 30 29 29 30 30 31 33 35 36 37 37 37 37 37 38 38 37 36 36 36 35 34 33
14 15 15 18 23 26 26 25 25 26 27 26 24 23 23 24 26 26 25 25 25 26 28 29 31 32 32 32 32 32 33 34 35 36 36 36 36 35 34 33 32 31 30 30 31 32 33 34 35 37 38 38 38 39 39 39 38 37 37 37 36 34 33
20 19 18 18 23 26 24 22 22 25 28 27 24 23 23 25 28 27 26 25 25 26 27 27 27 29 30 31 32 32 32 33 35 37 37 37 37 37 37 36 34 33 32 32 32 33 35 35 36 37 39 40 40 40 40 40 39 39 39 38 36 34 33
28 26 23 19 23 26 23 18 19 22 26 27 24 22 22 26 30 30 29 28 27 27 27 27 27 27 28 29 30 31 32 33 35 36 38 38 39 39 40 39 37 35 35 34 35 35 35 36 37 38 39 41 41 41 41 40 40 40 40 39 36 34 33
32 30 24 18 22 26 22 18 18 21 24 25 22 19 18 21 26 30 32 31 29 29 28 28 28 28 29 29 30 31 33 35 36 37 37 38 39 41 41 41 40 39 38 37 37 37 37 37 37 38 40 41 42 42 42 41 41 41 40 39 37 35 34
31 30 23 16 19 24 22 19 19 20 23 23 21 19 19 19 21 27 31 31 30 30 29 28 28 29 30 30 30 29 30 32 35 37 38 39 40 41 42 42 42 41 41 41 40 40 40 40 39 39 40 42 43 43 43 42 42 42 41 39 37 36 35
27 28 24 19 19 22 21 20 20 20 22 24 23 22 23 22 21 24 28 30 31 31 31 29 30 32 31 28 25 23 24 27 30 32 34 37 39 40 41 42 42 43 43 43 43 43 42 41 41 41 41 42 43 43 43 43 42 42 41 39 38 37 36
23 24 24 22 21 21 22 21 21 21 22 25 26 26 26 26 25 25 26 27 30 33 33 32 32 31 28 24 22 21 23 25 26 26 27 29 31 34 36 38 41 43 44 45 45 46 45 44 43 43 43 43 43 43 43 43 43 43 42 40 39 38 37
22 23 25 25 23 23 23 22 22 21 21 23 26 28 29 29 28 26 25 25 29 33 34 33 31 28 25 23 23 24 25 26 26 25 25 26 28 30 32 35 38 41 43 46 47 48 48 47 46 46 45 44 44 44 44 44 44 43 42 40 39 38 37
22 23 26 27 26 26 26 24 23 23 23 24 25 27 29 30 29 28 26 26 30 34 35 34 31 28 27 27 28 27 27 28 29 29 27 25 26 28 29 32 36 39 41 44 47 49 50 50 49 48 47 46 45 45 44 44 44 43 42 40 39 39 38
23 23 26 29 29 29 29 28 27 28 28 27 26 27 28 29 29 29 29 29 32 33 33 33 33 31 30 32 34 32 30 30 33 34 31 29 29 30 31 31 33 37 39 41 45 49 52 52 52 51 49 48 47 46 45 45 45 44 42 40 39 39 39
24 25 27 30 31 32 32 30 30 31 30 29 27 27 28 29 28 28 29 31 32 32 32 33 35 35 32 33 36 37 37 37 37 37 35 34 33 36 36 34 33 35 37 39 42 46 50 53 54 53 51 50 50 48 47 46 46 45 42 40 40 40 40
27 27 27 28 30 31 31 30 30 30 30 29 29 29 30 30 30 30 29 30 32 33 33 35 36 37 36 36 37 39 40 40 39 38 37 35 35 37 39 39 38 37 37 38 40 43 45 48 52 54 54 53 52 50 50 49 47 46 43 41 40 41 41
28 27 26 27 27 27 27 26 26 26 26 26 27 28 29 29 30 30 29 30 32 33 35 36 37 38 39 39 40 41 41 41 39 39 38 38 39 41 41 42 42 42 41 41 41 42 42 43 46 50 54 55 55 53 52 51 49 47 45 43 43 43 42
27 26 25 25 25 25 24 23 23 22 22 22 22 23 25 26 27 28 28 29 30 32 33 35 36 37 37 38 39 41 43 43 43 43 43 43 44 45 45 46 46 46 45 44 42 42 43 43 43 46 49 54 57 56 55 54 52 50 47 45 45 45 45
25 24 24 23 24 24 24 23 22 22 21 21 21 22 22 23 25 26 27 29 30 32 33 34 35 37 38 39 39 41 42 43 45 46 48 48 47 48 49 50 50 49 49 48 47 47 48 47 47 47 47 50 54 58 59 57 55 52 51 49 49 48 47
22 21 20 20 21 21 22 22 21 22 22 23 23 24 25 26 27 27 29 30 31 32 33 35 36 37 38 39 40 41 42 44 45 46 48 49 50 51 52 53 54 55 56 56 54 53 53 52 50 49 48 49 51 56 60 59 56 54 52 52 51 50 48
17 17 17 17 17 18 19 20 20 21 22 23 24 25 26 27 28 29 30 31 32 33 34 35 36 38 39 40 42 43 44 45 46 47 48 48 49 50 52 54 56 58 61 63 62 61 61 59 56 53 52 51 51 53 57 58 58 57 54 52 51 50 49
16 16 16 16 16 16 17 18 19 21 22 23 24 25 26 27 28 29 31 32 32 33 34 35 36 38 40 41 43 45 46 47 47 48 48 48 49 49 51 53 55 58 61 63 63 64 64 64 62 57 53 51 51 51 52 54 56 56 54 50 46 47 49
14 14 14 15 16 17 17 17 18 19 21 23 24 24 26 27 28 29 30 31 33 34 35 36 38 39 41 42 42 44 45 46 47 48 48 49 50 50 53 55 57 59 62 62 63 64 64 65 65 61 55 52 52 52 49 48 49 52 53 49 43 42 47
11 12 12 13 14 15 16 17 18 19 21 22 23 24 26 27 28 29 30 31 33 34 36 37 38 39 40 41 41 41 42 43 44 45 46 48 48 50 54 57 60 63 65 65 65 66 66 67 67 64 61 57 53 50 47 45 44 48 52 51 46 41 42
Wind_Direction
257 258 257 253 245 238 234 230 228 227 226 225 223 219 217 218 218 219 221 223 225 225 224 225 226 227 229 231 231 231 230 230 230 231 233 236 237 238 238 240 237 226 215 210 208 206 205 204 204 199 197 198 200 205 208 211 215 220 225 231 238 247 257
257 258 259 258 252 246 241 235 231 228 227 228 227 224 221 221 221 222 223 225 226 226 226 226 227 228 228 230 231 231 231 232 232 233 233 234 237 239 241 242 240 231 218 210 205 205 205 204 203 199 197 199 202 206 210 213 218 224 229 234 240 248 257
256 257 259 259 257 252 247 242 236 231 228 228 229 228 225 223 224 226 227 228 230 229 229 229 229 229 229 228 229 231 232 232 233 234 235 236 238 240 243 244 243 236 223 213 207 204 204 204 203 201 199 201 203 207 211 216 220 226 232 237 241 248 258
253 256 257 259 260 258 253 248 243 238 232 229 230 231 230 228 226 227 228 230 232 233 234 235 234 232 230 228 228 231 232 233 234 236 238 240 240 240 241 243 244 238 226 216 210 206 204 203 203 201 201 203 205 208 213 218 222 227 232 238 243 249 257
245 250 254 257 258 258 255 251 247 243 237 233 231 232 233 233 231 229 228 229 231 233 236 238 238 236 233 231 230 231 233 235 237 239 241 241 241 241 241 242 242 239 228 219 214 209 206 204 203 202 203 205 207 210 215 221 225 228 232 237 243 249 257
245 249 252 255 258 258 256 253 250 247 243 238 234 233 234 234 234 232 230 229 228 228 228 231 233 235 235 234 233 233 234 235 238 240 242 242 241 241 242 242 241 239 230 221 216 211 207 206 205 204 204 207 209 212 217 222 226 229 232 236 241 248 256
249 250 252 256 261 263 260 257 255 252 247 243 239 236 235 236 236 235 233 231 228 225 225 227 229 230 231 232 233 234 235 236 237 238 240 241 240 240 241 241 239 238 232 223 217 213 209 207 207 206 207 209 212 215 219 222 226 230 232 235 240 246 253
247 251 256 263 268 270 268 264 261 257 251 246 242 239 237 236 237 237 236 234 230 227 226 226 228 229 229 229 230 232 234 235 236 237 238 239 240 239 239 239 238 237 233 225 217 213 211 208 208 208 208 211 214 216 219 222 226 230 232 234 239 245 250
244 253 262 269 272 272 272 269 264 260 256 247 242 241 240 239 238 237 237 237 234 230 226 224 227 229 230 230 230 231 231 232 234 236 237 238 239 238 238 238 237 237 234 227 219 214 212 211 210 210 211 213 216 218 220 223 227 231 233 235 239 244 249
242 250 258 267 269 269 272 272 266 261 256 247 238 237 238 239 238 237 237 237 235 230 225 224 225 228 229 230 230 230 230 231 233 235 237 238 239 238 238 237 237 236 233 229 222 215 212 212 212 212 213 214 217 220 222 225 229 231 234 237 240 244 248
241 248 255 262 265 266 269 271 268 262 253 242 235 233 234 234 235 236 234 234 232 228 224 224 225 227 228 229 230 230 230 231 233 236 238 239 239 238 238 237 236 234 232 230 223 216 213 214 215 215 215 216 219 222 224 226 230 232 235 238 240 243 247
244 250 251 253 255 259 266 273 268 259 249 237 232 232 232 230 232 234 234 232 229 226 224 224 224 226 227 228 229 230 230 232 235 238 240 239 239 239 238 236 234 231 230 228 224 218 214 215 217 218 217 218 221 223 225 227 231 234 236 239 241 243 246
244 244 241 244 247 252 264 276 269 251 241 233 229 231 231 230 230 232 233 231 227 225 224 224 224 225 226 227 229 229 231 234 237 240 241 240 239 238 237 234 231 229 228 227 224 220 216 216 219 220 220 220 222 224 225 228 231 235 237 240 242 244 247
251 246 244 251 254 253 259 271 270 246 233 227 227 229 229 229 229 231 232 230 227 226 225 224 224 224 225 226 228 229 231 234 238 240 241 241 240 238 236 233 230 228 226 225 223 220 217 217 219 221 221 221 222 224 225 228 232 235 237 240 242 245 248
252 251 254 257 257 255 257 264 269 250 231 224 225 227 228 228 228 228 228 227 227 227 226 226 227 226 226 227 228 229 231 233 236 238 240 241 239 237 235 233 230 228 226 224 223 221 219 218 219 221 222 222 223 225 226 229 233 235 237 239 242 245 248
250 249 253 256 256 254 253 259 265 255 234 225 223 224 225 226 227 226 225 225 225 225 225 227 229 227 227 228 228 230 231 233 235 237 239 240 240 238 237 235 232 230 227 225 224 222 220 219 220 222 223 223 223 225 227 230 233 235 236 238 241 244 246
250 246 250 251 251 250 249 254 259 253 236 226 222 221 220 223 225 223 222 224 223 224 225 228 230 230 229 228 229 231 233 233 234 236 237 240 241 240 238 237 235 232 230 228 226 224 223 221 221 223 224 225 225 227 229 232 234 235 237 238 240 242 245
237 238 245 245 245 246 246 249 253 250 235 222 217 215 214 218 220 219 219 221 221 221 224 227 231 232 232 232 232 233 234 235 236 236 237 238 240 242 241 239 238 235 232 231 229 227 226 224 224 224 225 227 227 229 231 233 235 236 237 239 240 241 243
234 242 254 248 241 242 243 244 247 244 230 217 214 215 216 220 220 218 218 218 218 220 222 226 230 233 235 237 238 238 237 238 238 238 237 237 238 240 241 240 239 237 235 234 232 231 230 229 227 227 227 229 229 231 233 234 235 237 238 240 241 241 241
244 254 268 257 235 234 240 242 241 233 219 213 219 224 227 230 226 222 220 220 221 223 224 226 230 234 238 241 243 243 242 242 242 241 240 239 237 238 240 240 240 239 237 236 234 234 233 232 230 229 230 231 231 232 233 234 236 238 239 240 240 240 240
249 258 272 263 232 224 227 228 230 226 213 212 222 228 230 232 229 226 225 224 227 230 230 230 233 237 242 245 248 248 247 245 245 243 242 240 238 238 238 240 240 239 239 237 235 236 236 234 233 232 232 232 232 233 234 234 236 237 239 240 239 238 240
252 257 267 260 226 215 214 214 220 223 217 216 221 224 228 232 230 228 228 228 231 236 238 238 239 242 244 247 249 249 248 247 247 245 244 242 241 239 239 239 240 240 240 239 237 237 237 236 234 234 233 233 233 233 234 235 236 237 239 239 237 237 240
253 254 258 249 223 216 218 218 220 224 224 222 222 225 234 239 235 231 231 233 236 239 242 245 248 249 248 248 248 248 248 248 248 248 247 245 243 242 240 239 239 239 240 241 239 237 237 237 236 235 235 234 233 234 234 234 236 237 238 238 236 236 239
252 252 250 242 230 225 224 224 226 229 228 226 228 234 240 241 237 233 232 232 235 240 244 248 251 251 248 246 247 249 252 252 251 250 250 249 249 248 247 244 242 240 240 241 242 240 238 237 237 237 236 236 234 234 235 235 236 237 237 236 234 235 239
250 248 243 237 235 233 227 224 227 230 228 227 231 237 240 239 237 236 237 236 236 239 241 243 245 245 242 243 247 253 259 260 258 254 253 255 255 254 252 251 249 244 241 240 242 243 241 239 238 238 238 238 237 236 236 236 236 236 236 235 233 234 238
245 238 231 228 230 232 229 226 224 223 222 224 230 235 238 239 241 244 247 245 242 241 241 242 242 239 242 250 256 260 263 264 263 259 258 258 258 256 254 252 251 249 246 242 241 242 243 241 239 238 238 238 237 236 236 236 236 236 235 234 232 234 238
242 233 226 224 224 225 226 224 219 217 219 222 227 232 234 236 241 247 251 249 244 241 242 243 241 238 245 256 260 263 265 266 266 267 270 270 266 262 259 255 252 251 249 245 242 242 243 243 242 240 240 239 238 238 236 236 237 236 235 233 232 234 238
236 228 225 225 223 221 222 220 217 217 219 220 224 227 228 230 235 240 244 244 239 234 233 233 232 233 241 248 249 250 253 258 260 262 266 271 266 261 261 259 255 252 249 245 243 241 241 241 241 240 240 239 239 239 238 237 236 235 234 233 233 234 237
226 221 223 224 223 221 222 221 219 219 221 222 223 224 224 226 228 230 233 233 230 225 222 223 227 230 234 238 240 241 244 250 253 252 255 260 259 255 255 256 256 255 251 247 245 242 240 241 241 240 240 240 240 240 239 239 237 236 234 233 232 234 236
217 215 217 220 222 223 224 223 222 223 224 226 227 227 226 226 226 226 226 226 224 223 223 226 231 235 238 241 242 243 244 248 250 250 251 254 255 255 254 253 253 255 254 250 247 244 242 242 242 241 241 240 240 241 242 240 239 238 236 234 233 234 235
209 210 212 214 217 220 221 222 222 223 226 227 228 229 229 229 229 229 229 229 228 230 233 237 241 244 247 250 252 252 251 251 251 251 251 252 254 255 253 251 251 252 254 254 253 250 247 246 245 245 244 242 241 241 242 241 239 238 237 236 234 234 236
206 208 210 211 214 216 217 219 221 224 228 230 232 235 235 236 237 238 238 238 237 239 242 244 247 250 251 253 255 256 255 253 251 250 249 250 252 253 252 251 251 251 252 254 255 255 254 252 249 247 246 244 241 240 239 238 237 236 236 236 235 234 235
206 209 211 212 215 217 219 223 227 231 236 240 242 245 248 249 250 250 249 249 248 248 249 249 250 251 251 252 253 254 254 254 254 253 252 252 252 251 251 252 253 254 254 254 252 252 253 253 252 250 249 247 244 241 238 237 235 233 232 233 234 235 235
206 210 213 216 219 222 225 230 234 239 243 247 249 251 253 255 256 257 257 257 256 255 256 256 256 256 256 256 256 255 255 256 256 256 257 256 255 254 253 254 255 256 256 256 254 253 253 253 252 251 251 250 247 243 240 237 234 231 229 229 231 233 235
217 222 229 233 236 239 242 246 250 254 258 260 261 261 262 261 262 262 262 262 261 260 259 259 259 259 258 257 256 255 254 254 254 256 257 258 258 259 258 258 258 258 258 258 258 258 258 258 256 253 253 252 250 247 244 241 238 235 231 228 228 230 234
232 238 246 253 257 260 261 263 265 266 268 269 269 269 268 268 267 266 266 266 265 265 264 263 262 261 260 258 257 256 255 255 255 255 256 257 258 259 260 261 261 261 260 259 257 257 257 258 256 254 252 252 250 248 247 244 241 235 228 224 224 226 230
236 244 253 259 265 269 271 271 271 270 270 269 268 267 266 266 266 265 264 264 263 263 262 262 262 261 262 262 262 261 260 260 259 259 259 259 259 259 260 260 260 259 258 258 258 256 256 257 257 256 254 251 247 244 242 239 237 233 229 227 227 227 226
234 242 249 256 262 266 268 270 271 271 269 266 264 262 260 260 260 260 260 260 260 260 261 262 262 263 265 266 266 267 266 265 264 264 264 263 263 263 263 263 262 260 258 257 256 255 253 253 253 254 254 252 247 241 236 234 234 233 230 229 230 228 224
Height
3123 3124 3126 3128 3131 3133 3136 3138 3141 3143 3146 3148 3150 3152 3153 3154 3155 3157 3158 3159 3161 3163 3165 3167 3169 3171 3172 3174 3176 3178 3180 3182 3184 3186 3188 3189 3191 3193 3194 3195 3196 3197 3198 3199 3201 3203 3204 3205 3206 3208 3209 3210 3211 3213 3214 3214 3215 3215 3216 3217 3217 3217 3217
3120 3120 3121 3124 3126 3129 3132 3135 3138 3140 3143 3145 3147 3149 3151 3152 3153 3154 3155 3157 3159 3161 3163 3165 3166 3168 3170 3172 3174 3176 3178 3180 3182 3184 3185 3187 3189 3191 3192 3193 3194 3196 3197 3198 3199 3200 3201 3203 3204 3206 3207 3208 3209 3211 3212 3212 3213 3214 3215 3215 3215 3215 3215
3117 3117 3118 3119 3121 3125 3128 3132 3135 3137 3139 3142 3144 3146 3148 3150 3151 3152 3154 3155 3157 3159 3161 3162 3164 3166 3168 3170 3172 3174 3176 3177 3179 3181 3183 3185 3187 3189 3190 3191 3192 3194 3195 3196 3197 3198 3199 3201 3202 3203 3205 3206 3207 3208 3209 3210 3211 3212 3213 3214 3214 3214 3214
3114 3114 3115 3116 3118 3121 3124 3128 3131 3133 3136 3138 3141 3143 3145 3147 3149 3151 3152 3154 3155 3157 3158 3160 3161 3163 3165 3168 3169 3171 3173 3175 3177 3178 3180 3182 3185 3186 3187 3189 3190 3191 3193 3194 3195 3196 3197 3198 3199 3201 3203 3204 3205 3206 3207 3208 3209 3210 3211 3211 3212 3211 3212
3112 3112 3113 3113 3115 3117 3120 3123 3126 3129 3133 3135 3137 3140 3142 3145 3147 3148 3150 3152 3153 3155 3156 3158 3159 3161 3163 3165 3167 3169 3171 3173 3175 3176 3178 3180 3182 3183 3184 3186 3188 3189 3191 3192 3193 3194 3195 3196 3197 3199 3200 3202 3203 3204 3205 3206 3208 3209 3209 3209 3209 3209 3209
3109 3110 3110 3111 3112 3113 3116 3119 3122 3125 3129 3132 3134 3137 3139 3142 3143 3146 3148 3149 3151 3153 3154 3156 3157 3158 3160 3162 3164 3166 3168 3170 3172 3173 3175 3177 3179 3180 3181 3183 3185 3187 3188 3190 3191 3192 3193 3194 3195 3197 3198 3200 3201 3202 3203 3204 3205 3206 3207 3207 3207 3207 3207
3107 3107 3108 3108 3109 3110 3113 3116 3118 3121 3125 3128 3131 3134 3136 3138 3140 3142 3145 3146 3149 3150 3152 3153 3154 3156 3158 3160 3162 3164 3165 3167 3169 3171 3172 3174 3175 3177 3179 3181 3182 3184 3186 3187 3188 3189 3191 3192 3193 3195 3196 3197 3199 3200 3201 3202 3203 3204 3204 3205 3205 3205 3204
3104 3105 3105 3106 3107 3108 3109 3112 3115 3118 3121 3124 3127 3129 3132 3134 3136 3139 3141 3143 3146 3147 3149 3151 3152 3154 3156 3158 3159 3161 3163 3165 3166 3168 3169 3171 3172 3173 3175 3177 3179 3181 3183 3184 3185 3187 3188 3190 3191 3192 3193 3194 3196 3197 3198 3199 3200 3201 3202 3202 3202 3202 3202
3102 3102 3102 3104 3104 3105 3106 3109 3112 3114 3117 3120 3123 3125 3128 3130 3132 3135 3137 3140 3142 3144 3146 3148 3150 3152 3154 3156 3157 3159 3161 3162 3163 3165 3166 3167 3169 3170 3172 3174 3177 3179 3180 3181 3183 3184 3186 3188 3189 3190 3191 3192 3193 3194 3196 3197 3197 3198 3199 3199 3200 3200 3200
3099 3099 3100 3101 3102 3102 3102 3105 3108 3110 3113 3116 3119 3121 3124 3126 3129 3131 3134 3137 3139 3141 3143 3146 3148 3149 3151 3153 3155 3157 3158 3159 3161 3162 3163 3164 3165 3167 3169 3171 3174 3175 3177 3179 3180 3182 3183 3185 3186 3188 3188 3189 3190 3191 3193 3194 3194 3195 3196 3197 3197 3197 3197
3096 3097 3098 3099 3099 3099 3100 3102 3104 3106 3109 3112 3115 3117 3120 3122 3125 3127 3130 3133 3135 3138 3141 3143 3145 3146 3148 3150 3152 3154 3155 3156 3158 3158 3159 3161 3162 3164 3166 3168 3170 3172 3174 3176 3177 3179 3180 3182 3183 3185 3186 3187 3188 3189 3190 3191 3192 3192 3193 3194 3194 3194 3194
3093 3094 3095 3096 3097 3097 3097 3099 3101 3102 3105 3108 3111 3114 3116 3119 3122 3124 3127 3130 3132 3135 3138 3140 3142 3143 3145 3147 3149 3150 3152 3153 3154 3155 3156 3158 3160 3162 3164 3165 3167 3169 3170 3172 3174 3176 3177 3179 3180 3182 3183 3184 3185 3186 3187 3188 3189 3189 3190 3191 3191 3191 3191
3089 3091 3092 3093 3094 3094 3095 3096 3098 3099 3102 3105 3107 3110 3113 3116 3119 3122 3124 3127 3129 3132 3134 3136 3138 3140 3142 3144 3145 3147 3149 3150 3151 3152 3154 3155 3157 3159 3161 3162 3164 3165 3167 3169 3170 3172 3174 3175 3177 3179 3180 3182 3182 3183 3184 3185 3186 3186 3187 3187 3187 3188 3188
3086 3087 3088 3090 3091 3091 3092 3094 3095 3097 3100 3102 3104 3107 3110 3113 3116 3119 3121 3124 3126 3129 3131 3133 3135 3137 3139 3141 3142 3144 3146 3147 3149 3150 3152 3153 3155 3156 3157 3159 3160 3162 3163 3165 3166 3168 3170 3172 3174 3175 3177 3178 3179 3180 3181 3182 3182 3183 3183 3184 3184 3185 3185
3082 3084 3085 3086 3087 3089 3090 3091 3093 3094 3097 3099 3102 3104 3107 3110 3113 3116 3118 3120 3123 3125 3127 3130 3132 3134 3136 3137 3139 3141 3143 3145 3146 3148 3149 3150 3151 3153 3154 3156 3157 3158 3160 3161 3163 3165 3166 3168 3170 3171 3173 3174 3175 3177 3177 3178 3178 3179 3180 3181 3182 3182 3182
3079 3081 3082 3083 3084 3085 3087 3088 3090 3092 3094 3097 3099 3102 3104 3107 3110 3112 3115 3117 3119 3122 3124 3126 3128 3131 3133 3134 3136 3138 3140 3142 3143 3145 3146 3147 3148 3150 3151 3152 3154 3155 3156 3158 3159 3161 3162 3164 3166 3167 3168 3170 3171 3172 3173 3174 3175 3176 3177 3178 3179 3179 3179
3076 3077 3078 3080 3081 3082 3084 3085 3087 3089 3091 3094 3097 3099 3102 3104 3107 3109 3112 3114 3116 3119 3121 3123 3125 3127 3129 3131 3133 3135 3137 3138 3140 3142 3143 3144 3145 3146 3148 3149 3150 3152 3153 3154 3156 3157 3158 3160 3161 3163 3164 3166 3167 3169 3169 3170 3172 3173 3174 3175 3176 3176 3176
3073 3074 3075 3077 3078 3080 3081 3082 3084 3086 3088 3091 3094 3097 3099 3102 3104 3106 3109 3111 3113 3116 3118 3120 3122 3124 3126 3128 3130 3131 3133 3135 3136 3138 3140 3141 3142 3143 3144 3146 3147 3148 3150 3151 3152 3153 3154 3156 3157 3159 3160 3162 3163 3164 3165 3167 3168 3170 3170 3171 3172 3173 3174
3071 3072 3073 3074 3075 3077 3078 3079 3081 3083 3085 3089 3091 3094 3097 3099 3101 3104 3106 3109 3111 3113 3115 3116 3119 3121 3123 3125 3126 3128 3130 3131 3133 3134 3136 3137 3139 3140 3141 3142 3143 3144 3146 3147 3149 3150 3150 3152 3153 3155 3156 3157 3159 3160 3161 3163 3165 3166 3167 3167 3169 3170 3171
3069 3070 3071 3071 3072 3074 3075 3077 3078 3079 3082 3086 3089 3092 3095 3096 3098 3101 3104 3106 3108 3110 3112 3114 3116 3118 3119 3121 3122 3124 3126 3128 3129 3130 3132 3134 3135 3136 3137 3137 3139 3140 3142 3143 3145 3145 3146 3148 3149 3151 3152 3153 3155 3156 3157 3159 3161 3162 3163 3164 3165 3166 3167
3066 3067 3068 3069 3069 3071 3073 3074 3076 3077 3079 3082 3085 3088 3091 3093 3095 3098 3100 3102 3105 3106 3108 3111 3113 3114 3116 3117 3118 3120 3122 3123 3125 3126 3127 3129 3131 3131 3132 3133 3135 3136 3138 3139 3140 3141 3142 3144 3146 3147 3148 3149 3150 3152 3153 3155 3157 3158 3159 3160 3162 3163 3164
3063 3065 3066 3066 3066 3068 3070 3071 3073 3075 3077 3079 3082 3085 3087 3090 3092 3094 3096 3099 3101 3103 3105 3107 3109 3110 3112 3113 3114 3116 3117 3119 3120 3122 3123 3124 3126 3127 3128 3129 3131 3132 3133 3134 3136 3137 3138 3139 3141 3142 3143 3145 3146 3147 3149 3151 3152 3153 3155 3156 3158 3159 3159
3060 3062 3064 3065 3065 3066 3068 3069 3071 3073 3075 3077 3080 3082 3085 3087 3089 3091 3093 3095 3097 3099 3101 3103 3105 3106 3108 3109 3110 3112 3113 3115 3116 3117 3119 3120 3121 3122 3124 3125 3127 3128 3129 3130 3131 3132 3133 3134 3136 3138 3139 3140 3141 3142 3144 3146 3148 3149 3151 3153 3154 3155 3155
3057 3059 3061 3063 3063 3065 3066 3067 3069 3071 3073 3075 3078 3080 3082 3084 3085 3087 3089 3091 3093 3095 3097 3099 3100 3102 3104 3106 3107 3109 3110 3111 3112 3113 3114 3115 3117 3118 3120 3121 3123 3124 3125 3126 3126 3127 3128 3130 3131 3133 3134 3135 3137 3138 3140 3142 3143 3145 3146 3148 3150 3150 3151
3055 3056 3058 3060 3061 3062 3064 3065 3067 3069 3070 3072 3074 3076 3078 3080 3082 3084 3086 3088 3090 3091 3093 3094 3096 3098 3101 3103 3105 3106 3107 3107 3108 3109 3110 3111 3113 3114 3115 3117 3118 3119 3120 3121 3122 3123 3124 3125 3126 3127 3128 3130 3132 3134 3136 3137 3139 3140 3142 3143 3145 3146 3146
3052 3053 3055 3057 3058 3060 3061 3063 3065 3066 3068 3070 3072 3073 3075 3077 3079 3080 3083 3085 3087 3088 3089 3091 3094 3097 3099 3100 3102 3103 3103 3104 3105 3106 3107 3108 3109 3110 3111 3112 3113 3113 3114 3116 3116 3117 3118 3119 3121 3121 3123 3125 3126 3128 3130 3132 3133 3135 3137 3139 3140 3141 3141
3048 3050 3052 3054 3055 3057 3059 3061 3062 3064 3066 3068 3070 3071 3073 3074 3076 3078 3079 3081 3082 3084 3087 3089 3092 3094 3096 3097 3098 3098 3100 3101 3102 3103 3104 3105 3106 3106 3107 3107 3108 3108 3108 3109 3110 3111 3112 3113 3115 3116 3117 3119 3121 3123 3125 3126 3128 3130 3132 3134 3135 3136 3136
3045 3047 3049 3051 3053 3054 3056 3058 3060 3062 3064 3066 3067 3069 3070 3072 3074 3075 3076 3078 3079 3081 3083 3085 3087 3089 3091 3092 3093 3095 3096 3097 3098 3099 3100 3101 3102 3102 3103 3103 3103 3103 3103 3103 3104 3104 3105 3106 3108 3110 3112 3114 3116 3117 3119 3121 3122 3124 3126 3128 3130 3131 3131
3043 3045 3046 3048 3050 3051 3053 3055 3057 3059 3061 3063 3065 3066 3068 3069 3071 3072 3073 3075 3076 3077 3079 3080 3082 3083 3085 3086 3088 3090 3092 3093 3093 3094 3095 3096 3097 3097 3098 3099 3099 3098 3098 3098 3098 3098 3099 3100 3101 3103 3106 3108 3110 3112 3114 3115 3117 3118 3121 3123 3124 3125 3126
3041 3042 3044 3045 3047 3049 3051 3053 3055 3057 3059 3060 3062 3064 3065 3067 3068 3069 3071 3072 3074 3075 3076 3077 3079 3080 3081 3083 3084 3086 3087 3088 3089 3089 3090 3091 3091 3091 3092 3093 3094 3094 3094 3093 3093 3092 3093 3094 3096 3097 3099 3101 3103 3106 3108 3109 3111 3113 3116 3118 3119 3120 3121
3039 3040 3042 3043 3045 3047 3049 3050 3052 3055 3056 3058 3060 3061 3062 3064 3065 3066 3068 3069 3071 3072 3073 3075 3076 3077 3078 3079 3081 3082 3083 3084 3084 3084 3085 3086 3086 3086 3087 3087 3087 3087 3087 3088 3088 3088 3089 3089 3090 3091 3092 3094 3096 3098 3100 3102 3105 3108 3110 3112 3113 3114 3115
3037 3038 3040 3041 3043 3045 3047 3049 3051 3052 3054 3056 3057 3058 3060 3061 3062 3063 3065 3066 3068 3069 3070 3071 3072 3073 3074 3075 3076 3077 3078 3078 3079 3079 3079 3080 3079 3080 3080 3080 3079 3079 3080 3081 3082 3083 3084 3084 3084 3084 3085 3086 3088 3090 3092 3095 3097 3100 3104 3106 3107 3108 3109
3034 3036 3038 3040 3041 3043 3045 3047 3049 3050 3052 3054 3055 3056 3058 3059 3060 3061 3062 3063 3065 3066 3067 3068 3068 3069 3070 3071 3071 3072 3072 3072 3073 3073 3073 3073 3073 3073 3073 3073 3073 3073 3073 3074 3075 3075 3076 3076 3077 3077 3077 3078 3080 3081 3083 3086 3089 3092 3095 3098 3100 3102 3103
3032 3034 3036 3038 3039 3041 3043 3045 3047 3048 3050 3051 3053 3054 3055 3057 3058 3059 3060 3061 3062 3062 3063 3064 3064 3065 3065 3066 3066 3066 3066 3066 3067 3066 3066 3067 3067 3066 3067 3067 3067 3066 3065 3066 3066 3067 3067 3068 3069 3070 3071 3072 3073 3074 3075 3077 3081 3084 3087 3090 3092 3095 3097
3028 3031 3032 3034 3037 3038 3040 3042 3044 3045 3047 3048 3050 3051 3052 3053 3054 3055 3056 3057 3058 3058 3059 3059 3059 3060 3060 3060 3060 3060 3060 3060 3059 3059 3059 3059 3059 3059 3060 3060 3059 3058 3056 3057 3058 3058 3059 3060 3061 3064 3066 3066 3067 3068 3069 3071 3073 3076 3079 3082 3085 3088 3091
3025 3027 3029 3030 3032 3034 3036 3038 3039 3041 3042 3044 3045 3046 3047 3047 3048 3049 3050 3051 3051 3052 3053 3053 3054 3054 3054 3054 3054 3054 3054 3053 3053 3052 3052 3052 3052 3053 3053 3052 3051 3049 3047 3048 3049 3050 3050 3051 3052 3055 3058 3059 3061 3063 3064 3065 3066 3068 3070 3073 3078 3081 3083
3022 3024 3025 3027 3028 3029 3031 3032 3034 3035 3037 3038 3039 3040 3041 3041 3042 3043 3043 3044 3045 3046 3046 3047 3047 3047 3047 3048 3048 3047 3047 3047 3046 3046 3046 3046 3046 3046 3045 3043 3043 3040 3038 3038 3039 3041 3042 3042 3042 3045 3048 3050 3052 3055 3057 3057 3058 3060 3063 3067 3072 3074 3075
3019 3021 3022 3024 3025 3027 3028 3029 3030 3031 3032 3033 3034 3035 3035 3036 3037 3037 3038 3039 3039 3040 3040 3040 3040 3041 3041 3041 3041 3040 3040 3040 3039 3039 3039 3039 3039 3039 3037 3035 3032 3029 3026 3027 3029 3030 3031 3032 3032 3034 3036 3037 3041 3045 3049 3051 3052 3054 3058 3062 3065 3067 3069